Location: Chimay
(50.0486°N, 4.3171°E)
Time: 07:51:51
(UTC+00:00)

COSMOS 2406 - Pass Details

Date: 08 August 2020
Orbit: 845 x 862 km, 71.0° (Epoch: 27 September)

Event Time Altitude Azimuth Distance (km) Brightness Sun altitude
Rises 19:47:10 0° 189° (S) 3,424 6.1 -5.6°
Reaches altitude 10° 19:49:41 10° 185° (S) 2,490 5.4 -5.9°
Maximum altitude 19:55:11 51° 111° (ESE) 1,074 3.4 -6.6°
Drops below altitude 10° 20:00:42 10° 37° (NE) 2,497 5.7 -7.4°
Sets 20:03:13 0° 33° (NNE) 3,434 6.4 -7.7°
